[Iaude] MPEC F63: 2024 FY1 [a=1.64,e=0.47,i=0.2,H=26.5]

mpec at cfa.harvard.edu mpec at cfa.harvard.edu
Thu Mar 21 09:58:15 EDT 2024


M.P.E.C. 2024-F63                                Issued 2024 March 21, 13:56 UT

     The Minor Planet Electronic Circulars contain information on unusual
         minor planets, routine data on comets and natural satellites,
         and occasional editorial announcements.  They are published
    on behalf of Division F of the International Astronomical Union by the
          Minor Planet Center, Smithsonian Astrophysical Observatory,
                          Cambridge, MA 02138, U.S.A.
			  
             Prepared using the Tamkin Foundation Computer Network

                              MPC at CFA.HARVARD.EDU
            URL https://www.minorplanetcenter.net/    ISSN 1523-6714

                                    2024 FY1                                    


Observations:
     K24F01Y* C2024 03 20.46077316 16 38.104-02 52 04.52         18.32gUEF063I41
     K24F01Y  C2024 03 20.46112116 16 35.379-02 52 11.35         18.32gUEF063I41
     K24F01Y  C2024 03 20.49944916 11 37.343-03 03 52.26         18.39RUEF063I41
     K24F01Y  C2024 03 20.49979616 11 34.756-03 03 58.13         18.39RUEF063I41
     K24F01Y 1C2024 03 21.36143615 04 22.339-05 39 56.95         18.18GVEF063703
     K24F01Y 1C2024 03 21.36373715 04 14.758-05 40 13.04         18.85GVEF063703
     K24F01Y 1C2024 03 21.36604015 04 07.381-05 40 27.80         18.05GVEF063703
     K24F01Y 1C2024 03 21.36834415 03 59.854-05 40 43.39         18.06GVEF063703
     K24F01Y KB2024 03 21.41674 15 01 16.231-05 46 44.90         18.4 GVEF063734
     K24F01Y KB2024 03 21.42023 15 01 05.477-05 47 05.42         18.5 GVEF063734
     K24F01Y KB2024 03 21.42372 15 00 54.756-05 47 25.91         18.1 GVEF063734
     K24F01Y 1C2024 03 21.45570214 59 26.848-05 49 32.95         18.39GVEF063703
     K24F01Y 1C2024 03 21.45815614 59 19.475-05 49 47.21         18.11GVEF063703
     K24F01Y 1C2024 03 21.46061014 59 12.124-05 50 01.03         18.44GVEF063703
     K24F01Y 1C2024 03 21.46306414 59 04.729-05 50 14.17         17.89GVEF063703

Observer details:
703 Catalina Sky Survey.  Observer T. Beuden.  Measurers T. Beuden, V. F.
    Carvajal, D. Fay, J. B. Fazekas, D. C. Fuls, A. R. Gibbs, A. D. Grauer, H.
    Groeller, J. K. Hogan, R. A. Kowalski, S. M. Larson, G. J. Leonard, D.
    Rankin, R. L. Seaman, F. C. Shelly, K. W. Wierzchos, T. Beuden.  0.68-m
    Schmidt + 10K CCD.
734 Farpoint Observatory, Eskridge.  Observers D. Cromer, G. Hug, D. Goodin,
    R. Valentine, P. Lessig.  Measurers G. Hug, D. Cromer, G. Hug, D. Goodin,
    R. Valentine, P. Lessig.  0.69-m f/3.54 reflector + CMO.
I41 Palomar Mountain--ZTF.  Observers G. Helou, T. A. Prince, K.
    Venkataramani, Q.-Z. Ye, Z. T. F. Collaboration.  Measurers D. A. Duev,
    H.-W. Lin, A. A. Mahabal, F. J. Masci, Q.-Z. Ye, G. Helou, T. A. Prince,
    K. Venkataramani, Q.-Z. Ye, Z. T. F. Collaboration.  1.2-m f/2.4 Schmidt +
    ZTF Camera.

Orbital elements:
2024 FY1                                                 Earth MOID = 0.0012 AU
Epoch 2024 Mar. 31.0 TT = JDT 2460400.5                 MPC                     
M  24.05078              (2000.0)            P               Q                  
n   0.46917863     Peri.   73.91091     -0.57995911     -0.81464208             
a   1.6402520      Node    51.53700     +0.74625202     -0.53244229             
e   0.4740799      Incl.    0.17478     +0.32673438     -0.22992059             
P   2.10           H   26.51          G   0.15           U   8                  
Residuals in seconds of arc
240320 I41  0.7-  0.0     240321 703  0.2-  0.1-    240321 734  0.2-  0.0
240320 I41  0.2-  0.3-    240321 703  0.9+  0.1+    240321 703  0.1+  0.1+
240320 I41  0.3-  0.1-    240321 703  0.4-  0.6-    240321 703  0.3+  0.3-
240320 I41  0.5+  0.2+    240321 734  0.6-  0.0     240321 703  0.5+  0.2-
240321 703  1.6+  1.0+    240321 734  0.2-  0.1+    240321 703  0.1-  0.5+

Ephemeris:
2024 FY1                 a,e,i = 1.64, 0.47, 0                   q = 0.8626
Date    TT    R. A. (2000) Decl.     Delta      r    Elong.  Phase     V
2024 02 20    01 01 18.8 +07 14 06   0.1774  0.8757    46.4   125.2    27.7
...
2024 03 06    01 04 07.2 +08 33 32   0.08179 0.9242    32.5   144.8    28.4
...
2024 03 14    00 44 42.7 +09 12 08   0.03352 0.9629    20.7   158.6    29.6
...
2024 03 20    17 31 22.7 +00 35 16   0.0058820.9965    96.7    82.9    18.3
2024 03 21    15 25 30.4 -04 44 20   0.01007 1.0025   129.0    50.6    18.4
2024 03 22    14 39 19.9 -06 24 15   0.01546 1.0085   141.2    38.2    19.0
...
2024 03 28    13 42 49.1 -08 01 18   0.05065 1.0460   160.6    18.5    21.1
...
2024 04 05    13 29 32.5 -08 11 20   0.09971 1.0991   171.6     7.7    22.3
...
2024 04 20    13 21 49.4 -08 11 23   0.2018  1.2047   171.9     6.8    23.9

A. U. Tomatic                (C) Copyright 2024 MPC           M.P.E.C. 2024-F63





More information about the Iaude mailing list